Wind_Speed
42 42 42 42 42 42 41 40 39 39 38 37 36 35 35 35 35 34 34 34 33 33 32 32 32 32 32 31 31 31 31 31 31 31 32 32 32 32 33 34 34 35 35
43 43 44 44 43 43 43 42 42 41 40 39 38 37 37 37 36 35 35 35 35 34 33 33 33 33 33 33 33 33 33 32 33 33 33 33 33 34 34 35 35 36 36
44 44 44 45 45 45 45 44 43 43 42 42 41 40 39 38 37 37 37 37 37 36 36 35 35 34 34 34 34 34 34 34 34 34 35 34 34 35 35 36 36 37 37
44 44 45 46 46 46 46 46 45 44 44 43 43 42 41 40 39 39 39 39 39 38 38 37 37 36 36 35 35 35 36 36 36 36 36 36 36 36 36 37 37 38 39
43 44 45 46 46 46 47 47 46 46 45 45 44 43 42 42 42 42 41 41 40 40 40 39 39 38 38 38 38 37 38 38 38 37 37 37 38 38 38 38 38 39 40
43 43 45 45 46 46 47 47 47 47 47 46 46 45 44 44 44 44 43 43 42 42 42 41 41 40 40 40 40 39 39 39 39 39 39 39 39 39 39 39 39 40 41
43 43 44 45 45 46 46 47 48 48 48 47 47 46 46 46 46 46 45 45 44 44 43 43 43 42 42 42 42 41 41 41 41 41 41 41 41 40 40 40 40 41 41
44 45 45 45 45 47 47 48 49 49 49 48 48 47 47 47 47 48 48 47 46 45 45 45 45 44 43 43 43 43 42 43 42 42 42 42 42 42 42 41 42 42 42
44 45 45 45 45 46 47 48 49 49 50 49 49 49 48 49 48 48 48 48 48 47 47 47 46 45 45 44 44 44 43 43 43 43 44 44 43 43 43 43 43 44 44
42 44 45 46 46 47 48 48 49 49 50 50 50 50 50 50 50 49 48 49 49 49 49 49 48 47 47 46 46 45 44 45 45 45 45 44 44 44 44 44 44 45 45
41 43 44 45 46 47 48 50 50 50 51 51 51 51 52 51 51 51 50 50 51 51 51 51 50 50 49 48 47 47 47 47 46 46 46 45 45 45 45 45 45 46 46
41 42 43 45 46 47 48 49 50 50 51 51 51 51 51 53 52 52 52 52 52 52 52 52 51 51 50 50 49 48 48 48 48 47 47 46 46 46 46 46 46 47 47
41 42 42 44 45 46 48 49 50 51 51 51 51 53 52 52 53 52 52 53 53 53 53 52 51 51 51 50 50 50 49 49 48 48 47 47 47 47 47 47 47 47 47
40 41 43 44 45 47 48 50 50 51 51 52 53 53 53 53 52 53 53 53 53 53 53 53 53 52 52 52 52 51 51 50 49 49 49 48 48 48 48 48 47 48 48
42 42 43 45 46 46 48 49 50 51 52 52 52 53 53 53 53 52 51 52 53 53 54 54 53 53 52 52 51 51 50 49 49 49 49 48 48 48 49 49 48 49 49
42 42 43 45 46 46 46 48 49 50 51 52 52 53 54 54 54 53 51 51 51 52 53 53 52 52 52 51 51 50 50 49 48 48 48 49 48 49 49 49 50 50 50
42 42 42 42 44 45 46 47 47 48 50 52 53 53 53 53 53 53 52 51 50 50 51 51 52 51 51 51 50 51 51 49 49 49 49 49 49 49 49 50 50 50 50
42 42 43 43 43 43 44 46 47 48 49 50 52 53 53 53 52 52 53 52 50 50 50 51 51 52 51 51 50 51 51 50 50 50 50 50 49 49 49 49 49 50 50
42 42 43 43 44 44 43 44 45 47 48 49 50 51 52 53 53 52 53 53 53 51 50 50 51 51 51 50 50 51 50 50 50 49 50 50 49 49 50 50 50 50 49
42 41 42 42 43 44 45 45 45 46 47 48 49 50 51 52 52 52 53 53 53 52 50 50 51 51 50 50 50 50 50 49 49 49 48 49 49 49 50 50 50 50 50
41 41 42 42 42 43 44 45 45 46 46 46 47 48 50 50 51 51 52 52 52 52 52 51 51 51 50 50 50 50 50 50 50 49 49 50 50 50 50 50 49 49 49
41 42 42 42 42 42 43 44 44 45 45 46 46 47 48 49 50 51 51 51 50 51 51 50 50 50 50 49 49 49 50 50 51 51 50 50 50 50 50 50 49 49 49
40 41 41 41 42 43 43 44 44 44 44 44 45 46 47 47 48 49 49 48 48 48 49 48 48 47 47 48 48 49 50 50 50 50 50 51 50 50 50 49 49 49 49
39 40 40 41 41 42 42 42 43 43 44 43 44 45 45 46 46 46 46 46 46 46 47 47 47 46 46 47 48 48 48 47 48 49 49 49 48 48 48 47 47 48 48
38 39 39 39 39 39 40 40 41 42 43 43 43 44 45 45 44 44 45 45 45 45 45 46 46 47 46 45 44 44 45 45 46 46 46 45 45 46 46 45 46 47 47
37 38 38 38 38 38 38 38 39 40 40 41 42 42 43 43 42 42 43 43 43 43 43 43 43 43 43 43 43 43 43 43 43 44 44 44 43 43 43 44 45 45 45
Wind_Direction
243 244 244 244 244 244 243 243 244 245 246 248 250 251 251 252 253 255 256 257 259 261 263 264 267 268 269 271 274 275 277 279 282 284 286 287 289 290 291 292 293 293 294
245 244 245 245 244 244 243 244 245 246 247 249 251 252 251 252 253 254 257 258 260 261 264 265 267 268 269 271 273 275 276 278 281 283 284 286 288 289 291 292 293 293 294
247 246 246 245 244 243 243 244 245 246 248 250 251 252 253 253 254 255 256 258 260 261 263 265 266 268 269 271 272 274 276 277 280 282 284 285 286 287 290 291 292 293 293
248 247 247 245 244 243 242 243 245 247 248 250 251 252 253 253 254 254 256 258 260 262 263 264 265 267 269 270 271 273 275 278 280 281 283 284 286 287 289 290 291 293 294
249 247 246 245 244 243 243 243 245 247 248 249 250 252 252 252 253 255 256 258 260 262 262 263 264 266 268 269 271 272 274 277 279 281 282 283 285 287 289 290 291 292 293
249 247 246 245 244 243 243 244 244 246 247 248 250 251 252 252 253 255 256 258 260 261 262 262 264 266 267 268 270 271 274 276 278 280 281 283 285 287 288 289 291 292 293
250 249 248 246 245 244 243 244 245 246 247 249 250 251 252 252 254 255 256 257 259 261 262 262 263 265 266 267 269 271 273 275 276 278 280 282 284 285 287 288 290 291 292
252 250 249 248 246 245 244 245 246 246 248 249 250 251 251 252 253 254 256 257 258 260 260 261 262 264 265 266 268 270 272 274 275 277 279 280 282 284 286 287 289 291 292
253 251 250 248 247 246 246 246 246 247 248 249 250 251 251 252 253 254 255 257 259 259 260 261 262 263 264 266 268 270 272 273 275 276 278 280 282 283 285 287 289 291 292
255 253 252 251 249 248 247 247 247 248 249 249 250 251 252 252 253 253 255 256 258 258 260 261 261 262 264 266 268 269 271 272 274 276 278 280 282 283 285 287 289 290 292
256 254 252 251 250 250 250 249 249 249 249 249 249 250 251 252 253 254 254 255 257 258 259 261 261 262 264 266 267 269 271 272 274 275 277 280 281 283 285 286 288 290 291
258 257 255 252 251 251 251 251 251 250 250 250 250 250 251 252 253 254 255 255 256 258 259 261 262 264 265 266 268 269 270 272 273 275 277 279 281 283 284 286 288 289 290
259 259 258 255 253 253 253 253 253 252 252 252 251 250 250 251 252 253 254 255 257 258 259 261 263 264 265 266 267 269 270 271 273 275 277 278 280 282 283 285 286 288 289
261 260 258 257 255 254 254 254 254 253 253 253 252 252 252 252 253 253 254 254 256 257 259 260 262 263 264 265 267 268 270 271 272 274 276 278 280 281 283 284 285 287 288
262 261 259 258 257 256 255 254 254 253 253 252 253 252 253 253 254 254 255 255 256 257 259 260 261 262 264 265 267 268 270 271 273 274 276 277 278 280 282 284 285 286 287
263 262 261 258 258 257 256 255 254 253 252 252 252 252 253 254 254 254 255 256 257 258 259 260 260 262 264 265 267 268 270 271 273 274 276 277 279 281 282 283 284 286 287
264 263 262 260 258 257 256 254 253 254 254 253 252 253 254 255 255 255 256 257 258 258 258 259 260 261 263 264 266 267 269 271 273 274 275 277 279 281 282 283 284 286 287
263 263 263 262 260 259 258 257 255 254 254 254 254 254 255 255 255 256 256 257 258 259 259 259 259 261 263 264 266 267 269 271 273 274 276 278 279 280 281 282 284 286 287
264 263 263 262 261 260 259 259 258 259 258 257 257 257 257 257 257 257 257 257 259 259 260 260 260 261 262 264 266 268 270 271 273 274 276 277 279 280 281 282 283 285 287
266 265 263 263 262 260 259 259 260 261 260 259 258 258 259 259 258 258 258 258 258 258 259 260 260 261 263 264 266 268 270 272 274 275 276 278 279 280 281 282 283 285 287
267 266 265 264 263 261 261 261 261 261 260 259 258 258 259 259 258 257 257 258 258 259 260 260 260 261 263 265 266 269 271 272 273 274 276 277 279 279 280 281 283 285 286
267 267 266 265 264 263 262 262 262 262 261 260 259 259 260 259 258 257 257 257 258 260 261 261 261 261 263 264 267 269 270 272 273 274 275 277 278 278 279 281 283 284 286
268 267 267 266 265 265 264 263 263 263 262 260 260 260 260 260 259 259 258 257 257 259 261 262 262 263 264 265 267 269 271 272 273 274 274 275 276 277 279 281 282 283 285
269 269 267 266 266 266 265 264 263 262 262 261 261 260 260 260 261 260 259 258 258 259 260 262 263 264 265 266 268 269 271 272 273 274 275 275 275 277 279 280 281 283 285
269 268 268 267 267 266 265 265 263 262 262 262 262 261 261 261 261 260 259 258 257 258 260 262 263 265 265 267 268 269 270 271 273 274 274 275 276 278 279 280 282 284 286
270 268 266 267 267 267 266 264 262 261 261 261 262 262 262 261 260 259 258 257 257 257 258 261 263 265 265 267 269 270 271 271 272 272 273 275 277 280 281 282 283 284 285
Height
5751 5753 5755 5757 5760 5762 5765 5769 5771 5774 5776 5778 5780 5782 5783 5784 5785 5786 5787 5787 5788 5788 5789 5789 5788 5788 5787 5787 5786 5785 5784 5783 5781 5780 5778 5776 5774 5772 5769 5767 5764 5762 5759
5740 5743 5745 5747 5750 5753 5756 5759 5762 5765 5767 5770 5771 5773 5774 5775 5777 5778 5779 5779 5780 5780 5781 5781 5781 5780 5780 5779 5779 5778 5777 5775 5774 5772 5770 5768 5767 5764 5762 5759 5756 5754 5751
5730 5732 5734 5736 5739 5743 5746 5749 5753 5755 5758 5760 5761 5764 5765 5767 5768 5770 5770 5771 5771 5772 5772 5772 5772 5772 5772 5771 5771 5770 5769 5768 5766 5764 5762 5761 5759 5756 5754 5751 5748 5745 5743
5719 5721 5723 5726 5729 5732 5736 5739 5742 5745 5748 5750 5752 5754 5756 5758 5760 5760 5761 5762 5762 5763 5763 5763 5763 5763 5763 5763 5762 5761 5760 5759 5758 5756 5754 5752 5750 5748 5746 5744 5740 5737 5734
5707 5709 5712 5715 5718 5721 5725 5728 5732 5735 5738 5740 5742 5744 5746 5748 5749 5750 5752 5752 5753 5753 5754 5754 5754 5754 5754 5754 5753 5752 5751 5750 5749 5747 5745 5743 5741 5739 5737 5735 5732 5729 5726
5696 5698 5701 5704 5707 5710 5714 5717 5720 5724 5727 5730 5732 5735 5737 5738 5739 5740 5742 5742 5743 5744 5744 5744 5744 5744 5744 5744 5744 5743 5742 5741 5740 5738 5736 5734 5732 5730 5727 5725 5723 5720 5717
5686 5688 5690 5693 5696 5699 5703 5706 5709 5713 5716 5718 5721 5724 5726 5727 5729 5730 5731 5732 5733 5734 5734 5734 5734 5734 5734 5734 5733 5733 5732 5731 5730 5729 5727 5725 5723 5720 5718 5716 5713 5710 5707
5675 5677 5680 5682 5685 5688 5691 5695 5698 5701 5704 5707 5710 5712 5714 5715 5718 5719 5720 5721 5722 5723 5723 5723 5723 5723 5723 5723 5723 5722 5722 5721 5720 5718 5717 5715 5713 5710 5708 5706 5703 5700 5697
5663 5666 5668 5671 5674 5677 5680 5683 5686 5689 5692 5695 5698 5700 5702 5704 5706 5707 5708 5709 5711 5711 5711 5712 5712 5712 5712 5712 5712 5712 5711 5710 5709 5708 5706 5704 5702 5700 5697 5695 5692 5690 5687
5652 5654 5657 5659 5662 5665 5668 5670 5673 5677 5680 5682 5685 5687 5689 5691 5693 5694 5696 5698 5699 5699 5700 5700 5701 5701 5701 5701 5701 5701 5700 5699 5698 5697 5695 5694 5692 5689 5687 5684 5681 5678 5675
5640 5642 5645 5648 5650 5653 5656 5658 5661 5663 5666 5669 5671 5674 5676 5678 5680 5681 5683 5685 5686 5687 5688 5689 5689 5689 5690 5690 5690 5690 5689 5688 5687 5686 5684 5683 5680 5678 5676 5673 5670 5667 5664
5628 5630 5633 5635 5638 5640 5643 5645 5648 5650 5652 5655 5657 5660 5662 5664 5666 5668 5670 5671 5673 5674 5675 5676 5677 5677 5678 5678 5678 5678 5677 5676 5675 5674 5673 5671 5669 5667 5664 5662 5659 5656 5652
5616 5618 5620 5622 5625 5627 5630 5632 5634 5637 5639 5641 5643 5645 5648 5650 5652 5654 5656 5658 5659 5661 5662 5663 5664 5665 5665 5665 5665 5665 5665 5664 5663 5662 5661 5659 5657 5655 5653 5650 5647 5644 5641
5604 5605 5607 5609 5611 5613 5616 5618 5621 5623 5625 5627 5629 5631 5633 5636 5638 5640 5642 5643 5645 5647 5648 5650 5651 5651 5652 5652 5652 5652 5652 5652 5651 5650 5648 5647 5645 5643 5640 5638 5635 5632 5628
5592 5593 5594 5596 5598 5600 5602 5604 5606 5608 5610 5613 5615 5617 5619 5621 5623 5626 5628 5630 5631 5633 5635 5636 5637 5638 5639 5639 5640 5639 5639 5639 5638 5637 5636 5634 5632 5630 5628 5625 5622 5619 5616
5579 5580 5581 5583 5584 5586 5588 5590 5592 5594 5596 5598 5601 5603 5605 5607 5609 5612 5613 5616 5617 5619 5620 5622 5623 5624 5625 5626 5626 5626 5626 5626 5625 5624 5623 5621 5619 5617 5615 5612 5610 5607 5604
5566 5567 5568 5569 5571 5572 5574 5576 5578 5580 5582 5584 5586 5588 5590 5593 5595 5597 5600 5602 5603 5605 5606 5608 5609 5611 5612 5612 5613 5612 5612 5612 5612 5611 5610 5608 5606 5604 5602 5599 5597 5594 5591
5553 5555 5556 5557 5558 5559 5560 5562 5564 5566 5568 5570 5572 5574 5576 5578 5580 5583 5585 5588 5589 5591 5593 5594 5596 5597 5598 5599 5599 5598 5598 5598 5598 5597 5596 5594 5593 5591 5589 5586 5583 5581 5578
5541 5542 5543 5544 5545 5546 5547 5549 5551 5552 5554 5556 5557 5559 5561 5563 5566 5568 5571 5573 5575 5577 5579 5580 5582 5583 5584 5585 5585 5584 5583 5584 5584 5583 5582 5581 5579 5578 5575 5573 5570 5568 5565
5528 5529 5530 5531 5532 5534 5535 5536 5538 5539 5540 5542 5543 5545 5547 5549 5551 5554 5556 5558 5560 5562 5564 5566 5567 5568 5569 5570 5570 5569 5569 5569 5569 5569 5568 5566 5565 5563 5561 5559 5557 5554 5552
5516 5517 5518 5519 5520 5521 5522 5523 5525 5526 5527 5528 5530 5531 5533 5535 5537 5539 5541 5543 5545 5548 5550 5551 5553 5554 5554 5555 5555 5555 5555 5555 5554 5554 5553 5552 5551 5549 5547 5545 5543 5541 5538
5504 5504 5505 5506 5507 5508 5509 5510 5512 5512 5513 5515 5516 5518 5519 5521 5522 5524 5526 5528 5531 5533 5535 5536 5538 5539 5540 5540 5540 5540 5540 5540 5539 5539 5539 5538 5536 5534 5532 5531 5529 5527 5524
5492 5492 5492 5493 5494 5495 5495 5497 5498 5499 5500 5501 5502 5504 5505 5507 5508 5510 5511 5513 5516 5518 5520 5522 5523 5525 5525 5526 5526 5525 5525 5524 5524 5524 5523 5522 5521 5520 5518 5516 5514 5512 5510
5479 5479 5480 5480 5481 5482 5482 5483 5484 5485 5486 5488 5489 5490 5492 5493 5494 5495 5497 5499 5502 5504 5506 5508 5509 5511 5511 5511 5511 5511 5510 5510 5509 5509 5508 5508 5507 5506 5504 5502 5500 5498 5496
5467 5467 5468 5468 5469 5469 5469 5470 5471 5472 5473 5474 5475 5477 5478 5479 5481 5482 5484 5486 5488 5490 5493 5495 5496 5497 5498 5498 5498 5498 5497 5497 5496 5495 5495 5494 5494 5493 5491 5489 5487 5485 5483
5455 5455 5456 5456 5456 5457 5457 5458 5458 5459 5460 5461 5462 5463 5465 5466 5467 5469 5471 5472 5475 5477 5479 5481 5482 5483 5484 5484 5485 5485 5485 5484 5483 5483 5482 5482 5481 5480 5478 5476 5474 5472 5470